Tracking 19854 objects as of 24-Sep-2019
HD Live streaming from Space Station
objects crossing your sky now

SL-8 DEB

Track SL-8 DEB now!
10-day predictions


NORAD ID: 21137
Int'l Code: 1991-009P
Perigee: 1,487.3 km
Apogee: 1,729.2 km
Inclination: 74.0 °
Period: 118.2 minutes
Semi major axis: 7979 km
RCS: 0.3349 m2 (medium)
Launch date: February 12, 1991
Source: Commonwealth of Independent States (former USSR) (CIS)
Launch site: PLESETSK MISSILE AND SPACE COMPLEX (PKMTR)

Note: This is SATELLITE DEBRIS
aabbcc
Your satellite tracking list
Your tracking list is empty




NASA's NSSDC Master Catalog

Two Line Element Set (TLE):
1 21137U 91009P   19267.00626066  .00000003  00000-0  17077-3 0  9992
2 21137  74.0422  83.3115 0151576 229.2449 297.7718 12.18032734271410
Source of the keplerian elements: AFSPC